McAllen, TX

11:06 PM CDT on July 24, 2017 (GMT -0500)
McAllen Miller International

Weather History for KMFE - February, 2014

Change the Weather History Date:

Sunday, February 16, 2014

  Actual Average Record
Temperature  
Mean Temperature 74 °F 65 °F  
Max Temperature 84 °F 75 °F 92 °F (1982)
Min Temperature 64 °F 54 °F 36 °F (2007)
Degree Days  
Heating Degree Days 0 4  
Month to date heating degree days 157 73  
Since 1 July heating degree days 758 500  
Cooling Degree Days 9 3  
Month to date cooling degree days 24 46  
Year to date cooling degree days 40 108  
Growing Degree Days 23 (Base 50)    
Moisture  
Dew Point 63 °F    
Average Humidity 76    
Maximum Humidity 100    
Minimum Humidity 51    
Precipitation  
Precipitation 0.00 in 0.05 in 0.32 in (2012)
Month to date precipitation 0.04 0.70  
Year to date precipitation 0.70 1.75  
Sea Level Pressure  
Sea Level Pressure 29.99 in    
Wind  
Wind Speed 16 mph (SSE)    
Max Wind Speed 24 mph    
Max Gust Speed 30 mph    
Visibility 8 miles    
Events      
T = Trace of Precipitation, MM = Missing Value Source: NWS Daily Summary

Daily Weather History Graph

Daily Weather History Graph

Search for Another Location

Airport or City:

Trip Planner

Search our weather history database for the weather conditions in past years. The results will help you decide how hot, cold, wet, or windy it might be!

Date:

Astronomy

Feb. 16, 2014 Rise Set
Actual Time 7:07 AM CST 6:26 PM CST
Civil Twilight 6:44 AM CST 6:50 PM CST
Nautical Twilight 6:17 AM CST 7:17 PM CST
Astronomical Twilight 5:50 AM CST 7:44 PM CST
Moon 8:08 PM CST (2/16) 7:51 AM CST (2/16)
Length of Visible Light 12h 06m
Length of Day
11h 18m
Full, 97% of the Moon is Illuminated
Feb 16
Full
Feb 22
Last Quarter
Mar 1
New
Mar 8
First Quarter
Mar 16
Full

Hourly Weather History & Observations

Time (CST) Temp. Heat Index Dew Point Humidity Pressure Visibility Wind Dir Wind Speed Gust Speed Precip Events Conditions
12:53 AM 66.0 °F - 63.0 °F 90% 30.02 in 10.0 mi SSE 13.8 mph 24.2 mph N/A   Overcast
1:53 AM 66.9 °F - 63.0 °F 87% 30.01 in 9.0 mi SSE 15.0 mph 26.5 mph N/A   Overcast
2:03 AM 66.2 °F - 62.6 °F 88% 30.01 in 9.0 mi SSE 20.7 mph 26.5 mph N/A   Overcast
2:50 AM 64.4 °F - 62.6 °F 94% 30.00 in 8.0 mi SSE 12.7 mph - N/A   Scattered Clouds
2:53 AM 64.9 °F - 63.0 °F 93% 30.00 in 7.0 mi SSE 11.5 mph - N/A   Scattered Clouds
3:53 AM 64.0 °F - 62.1 °F 93% 29.98 in 6.0 mi SSE 11.5 mph - N/A   Partly Cloudy
4:53 AM 64.0 °F - 62.1 °F 93% 29.96 in 6.0 mi SSE 12.7 mph - N/A   Clear
5:19 AM 64.4 °F - 62.6 °F 94% 29.97 in 5.0 mi SSE 12.7 mph - N/A   Scattered Clouds
5:30 AM 64.4 °F - 62.6 °F 94% 29.97 in 5.0 mi SSE 10.4 mph - N/A   Mostly Cloudy
5:53 AM 64.0 °F - 62.1 °F 93% 29.97 in 5.0 mi SSE 18.4 mph 23.0 mph N/A   Overcast
6:53 AM 64.0 °F - 62.1 °F 93% 29.99 in 5.0 mi SSE 16.1 mph 23.0 mph N/A   Overcast
7:53 AM 64.9 °F - 62.1 °F 90% 30.01 in 4.0 mi South 12.7 mph 20.7 mph N/A   Overcast
8:53 AM 64.9 °F - 63.0 °F 93% 30.03 in 4.0 mi SSE 16.1 mph 21.9 mph N/A   Overcast
9:53 AM 66.9 °F - 63.0 °F 87% 30.04 in 5.0 mi SSE 18.4 mph 28.8 mph N/A   Overcast
10:06 AM 66.2 °F - 62.6 °F 88% 30.04 in 5.0 mi South 16.1 mph 26.5 mph N/A   Overcast
10:13 AM 66.2 °F - 62.6 °F 88% 30.05 in 5.0 mi SSE 19.6 mph 25.3 mph N/A   Overcast
10:53 AM 69.1 °F - 63.0 °F 81% 30.05 in 6.0 mi SSE 17.3 mph 25.3 mph N/A   Haze
11:14 AM 71.6 °F - 62.6 °F 73% 30.05 in 6.0 mi SSE 19.6 mph 26.5 mph N/A   Haze
11:53 AM 73.9 °F - 63.0 °F 68% 30.03 in 8.0 mi South 13.8 mph - N/A   Scattered Clouds
12:53 PM 79.0 °F - 64.0 °F 60% 30.00 in 10.0 mi SE 15.0 mph 18.4 mph N/A   Clear
1:53 PM 82.9 °F 84.0 °F 63.0 °F 51% 29.96 in 10.0 mi SE 10.4 mph 18.4 mph N/A   Clear
2:53 PM 82.9 °F 84.6 °F 64.9 °F 54% 29.94 in 10.0 mi SE 17.3 mph 24.2 mph N/A   Clear
3:53 PM 82.0 °F 83.4 °F 64.0 °F 54% 29.93 in 10.0 mi SE 18.4 mph 26.5 mph N/A   Clear
4:53 PM 78.1 °F - 64.0 °F 62% 29.94 in 10.0 mi SE 23.0 mph 26.5 mph N/A   Clear
5:53 PM 73.9 °F - 64.0 °F 71% 29.95 in 10.0 mi SE 19.6 mph 26.5 mph N/A   Clear
6:53 PM 71.1 °F - 64.9 °F 81% 29.96 in 10.0 mi SSE 13.8 mph 21.9 mph N/A   Clear
7:53 PM 69.1 °F - 64.9 °F 87% 29.98 in 10.0 mi SSE 13.8 mph - N/A   Scattered Clouds
8:10 PM 69.8 °F - 66.2 °F 88% 29.99 in 10.0 mi SSE 17.3 mph - N/A   Mostly Cloudy
8:53 PM 70.0 °F - 64.9 °F 84% 30.00 in 10.0 mi SSE 15.0 mph 20.7 mph N/A   Overcast
9:53 PM 70.0 °F - 64.9 °F 84% 30.00 in 10.0 mi SSE 20.7 mph 28.8 mph N/A   Overcast
10:53 PM 69.1 °F - 64.9 °F 87% 30.00 in 10.0 mi South 20.7 mph 27.6 mph N/A   Overcast
11:51 PM 68.0 °F - 64.4 °F 88% 29.99 in 9.0 mi SSE 15.0 mph - N/A   Scattered Clouds
11:53 PM 68.0 °F - 64.0 °F 87% 29.99 in 9.0 mi SSE 13.8 mph - N/A   Scattered Clouds